Omak, WA

1:25 AM PDT on October 22, 2017 (GMT -0700)
Omak

Weather History for KOMK - June, 2014

Change the Weather History Date:

Tuesday, June 3, 2014

  Actual Average Record
Temperature  
Mean Temperature 69 °F 63 °F  
Max Temperature 85 °F 77 °F 95 °F (1970)
Min Temperature 52 °F 49 °F 36 °F (1962)
Degree Days  
Heating Degree Days 0 4  
Month to date heating degree days 0 12  
Since 1 June heating degree days 0 12  
Since 1 July heating degree days 6380 6285  
Cooling Degree Days 4 2  
Month to date cooling degree days 12 5  
Year to date cooling degree days 26 28  
Since 1 June cooling degree days 12 5  
Growing Degree Days 18 (Base 50)    
Moisture  
Dew Point 43 °F    
Average Humidity 45    
Maximum Humidity 66    
Minimum Humidity 23    
Precipitation  
Precipitation T in 0.03 in 0.39 in (1947)
Month to date precipitation T 0.11  
Year to date precipitation 4.64 6.86  
Sea Level Pressure  
Sea Level Pressure 29.81 in    
Wind  
Wind Speed 10 mph (NNW)    
Max Wind Speed 30 mph    
Max Gust Speed 41 mph    
Visibility 10 miles    
Events Thunderstorm    
T = Trace of Precipitation, MM = Missing Value Source: NWS Daily Summary

Daily Weather History Graph

Daily Weather History Graph

Search for Another Location

Airport or City:

Trip Planner

Search our weather history database for the weather conditions in past years. The results will help you decide how hot, cold, wet, or windy it might be!

Date:

Astronomy

Jun. 03, 2014 Rise Set
Actual Time 4:59 AM PDT 8:53 PM PDT
Civil Twilight 4:18 AM PDT 9:34 PM PDT
Nautical Twilight 3:22 AM PDT 10:30 PM PDT
Astronomical Twilight 1:55 AM PDT 12:00 AM PDT
Moon 10:45 AM PDT (6/3) 12:07 AM PDT (6/3)
Length of Visible Light 17h 15m
Length of Day
15h 53m
Waxing Crescent, 31% of the Moon is Illuminated
Jun 3
Waxing Crescent
Jun 5
First Quarter
Jun 12
Full
Jun 19
Last Quarter
Jun 27
New

Hourly Weather History & Observations

Time (PDT) Temp. Dew Point Humidity Pressure Visibility Wind Dir Wind Speed Gust Speed Precip Events Conditions
12:53 AM 59.0 °F 42.1 °F 53% 29.76 in 10.0 mi NW 8.1 mph - N/A   Partly Cloudy
1:53 AM 57.9 °F 41.0 °F 53% 29.76 in 10.0 mi WNW 8.1 mph - N/A   Partly Cloudy
2:53 AM 57.0 °F 41.0 °F 55% 29.76 in 10.0 mi NW 9.2 mph - N/A   Clear
3:53 AM 55.9 °F 43.0 °F 62% 29.78 in 10.0 mi NNW 10.4 mph - N/A   Mostly Cloudy
4:53 AM 54.0 °F 42.1 °F 64% 29.78 in 10.0 mi NW 5.8 mph - N/A   Partly Cloudy
5:53 AM 57.0 °F 42.1 °F 57% 29.79 in 10.0 mi North 9.2 mph - N/A   Scattered Clouds
6:53 AM 57.0 °F 44.1 °F 62% 29.81 in 10.0 mi North 8.1 mph - N/A   Mostly Cloudy
7:53 AM 64.0 °F 44.1 °F 48% 29.81 in 10.0 mi North 11.5 mph - N/A   Scattered Clouds
8:53 AM 69.1 °F 44.1 °F 40% 29.81 in 10.0 mi North 8.1 mph - N/A   Mostly Cloudy
9:53 AM 73.0 °F 45.0 °F 37% 29.81 in 10.0 mi NNE 4.6 mph - N/A   Mostly Cloudy
10:53 AM 79.0 °F 44.1 °F 29% 29.80 in 10.0 mi North 8.1 mph - N/A   Clear
11:44 AM 81.0 °F 41.0 °F 24% 29.81 in 10.0 mi Variable 6.9 mph - N/A Thunderstorm Clear
11:53 AM 80.1 °F 39.9 °F 24% 29.79 in 10.0 mi NW 8.1 mph - N/A Thunderstorm Clear
12:04 PM 79.0 °F 39.0 °F 24% 29.81 in 10.0 mi SW 5.8 mph - N/A   Clear
12:53 PM 78.1 °F 42.1 °F 28% 29.79 in 10.0 mi NW 4.6 mph - N/A   Mostly Cloudy
1:36 PM 79.0 °F 39.9 °F 25% 29.80 in 10.0 mi North 16.1 mph - N/A Thunderstorm Clear
1:53 PM 75.9 °F 42.1 °F 30% 29.79 in 10.0 mi North 13.8 mph - N/A   Clear
2:53 PM 78.1 °F 41.0 °F 27% 29.79 in 10.0 mi NW 4.6 mph - 0.00 in   Scattered Clouds
3:53 PM 75.9 °F 44.1 °F 32% 29.79 in 10.0 mi NW 9.2 mph - 0.00 in   Partly Cloudy
4:16 PM 75.0 °F 43.0 °F 32% 29.82 in 10.0 mi North 27.6 mph 39.1 mph N/A   Mostly Cloudy
4:53 PM 73.9 °F 44.1 °F 34% 29.82 in 10.0 mi North 24.2 mph 33.4 mph N/A   Clear
5:53 PM 73.9 °F 45.0 °F 35% 29.81 in 10.0 mi North 16.1 mph - 0.00 in   Mostly Cloudy
6:53 PM 75.0 °F 43.0 °F 32% 29.81 in 10.0 mi North 11.5 mph - N/A   Clear
8:53 PM 66.9 °F 45.0 °F 45% 29.86 in 10.0 mi NNW 8.1 mph - N/A   Partly Cloudy
10:53 PM 64.0 °F 42.1 °F 45% 29.92 in 10.0 mi NNW 11.5 mph - N/A   Clear
11:53 PM 61.0 °F 41.0 °F 48% 29.94 in 10.0 mi NW 11.5 mph - N/A   Clear